Location: Newark
(50.8311°N, 16.5142°E)
Time: 21:03:55
(UTC+00:00)

UKube-1 - Visible Passes

Search period start: 09 December 2019 00:00
Search period end: 19 December 2019 00:00
Orbit: 612 x 620 km, 98.4° (Epoch: 09 December)

Date Brightness Start Highest point End Pass type
(mag) Time Alt. Az. Time Alt. Az. Time Alt. Az.
09 Dec ? 16:00:25 10° NNE 16:04:26 36° E 16:08:25 10° SSE visible
09 Dec ? 17:37:03 13° N 17:40:19 29° WNW 17:44:03 10° WSW visible
10 Dec ? 16:16:20 10° NNE 16:20:34 51° E 16:24:47 10° S visible
10 Dec ? 17:53:21 12° NNW 17:56:15 22° WNW 17:59:35 10° WSW visible
11 Dec ? 16:32:33 11° NNE 16:36:41 73° ESE 16:41:00 10° S visible
11 Dec ? 18:09:38 11° NNW 18:12:10 17° WNW 18:14:55 10° W visible
12 Dec ? 16:48:50 13° NNE 16:52:45 80° WNW 16:57:05 10° SSW visible
12 Dec ? 18:26:07 10° NNW 18:28:02 13° NW 18:29:57 10° W visible
13 Dec ? 15:29:24 10° NE 15:32:29 19° E 15:35:31 10° SE visible
13 Dec ? 17:05:07 14° N 17:08:48 57° WNW 17:13:02 10° SSW visible
14 Dec ? 15:45:04 10° NE 15:48:41 26° E 15:52:18 10° SSE visible
14 Dec ? 17:21:23 14° N 17:24:48 41° WNW 17:28:51 10° SW visible
15 Dec ? 16:00:52 10° NNE 16:04:52 35° E 16:08:51 10° SSE visible
15 Dec ? 17:37:39 14° N 17:40:47 30° WNW 17:44:33 10° SW visible
16 Dec ? 16:16:50 10° NNE 16:21:01 50° E 16:25:13 10° S visible
16 Dec ? 17:53:55 13° NNW 17:56:43 23° WNW 18:00:06 10° WSW visible
17 Dec ? 16:33:05 12° NNE 16:37:07 71° ESE 16:41:26 10° S visible
17 Dec ? 18:10:10 11° NNW 18:12:37 17° WNW 18:15:27 10° W visible
18 Dec ? 16:49:20 13° NNE 16:53:12 82° WNW 16:57:31 10° SSW visible
18 Dec ? 18:26:28 10° NNW 18:28:29 13° NW 18:30:30 10° W visible
